PA3DZX-13 Weather Reports


time (UTC)temp
F
wind
direction
speed
knots
gust
knots
rain 1hr
in
rain 24hr
in
rain mn
in
humidity
%
barometer
mb
20260509232653 42 80 0.0 1.7 0.00 0.00 0.00 98 1016.0
20260509231151 42 81 0.0 1.7 0.00 0.00 0.00 98 1016.2
20260509225652 42 81 0.0 1.7 0.00 0.00 0.00 98 1016.3
20260509224151 44 81 0.0 1.7 0.00 0.00 0.00 96 1016.4
20260509222650 42 81 0.0 1.7 0.00 0.00 0.00 95 1016.3
20260509221151 46 313 0.0 0.0 0.00 0.00 0.00 94 1016.4
20260509215651 46 314 0.0 0.0 0.00 0.00 0.00 93 1016.3
20260509214150 48 313 0.0 0.0 0.00 0.00 0.00 87 1016.4
20260509212650 48 313 0.0 0.0 0.00 0.00 0.00 90 1016.5
20260509211149 50 313 0.0 0.0 0.00 0.00 0.00 85 1016.6
20260509205650 51 313 0.0 0.0 0.00 0.00 0.00 81 1016.8
20260509204149 51 313 0.0 0.0 0.00 0.00 0.00 80 1016.8
20260509202649 51 313 0.0 0.0 0.00 0.00 0.00 79 1016.8
20260509201149 53 313 0.0 0.0 0.00 0.00 0.00 72 1016.7
20260509195649 53 313 0.0 1.7 0.00 0.00 0.00 69 1016.4
20260509194148 55 314 1.7 3.5 0.00 0.00 0.00 64 1016.4
20260509192648 59 320 1.7 3.5 0.00 0.00 0.00 57 1016.4
20260509191147 59 330 3.5 5.2 0.00 0.00 0.00 53 1016.3
20260509185647 62 316 1.7 3.5 0.00 0.00 0.00 51 1016.3
20260509184146 62 327 1.7 5.2 0.00 0.00 0.00 50 1016.4
20260509182646 62 345 3.5 5.2 0.00 0.00 0.00 49 1016.2
20260509181146 64 295 1.7 5.2 0.00 0.00 0.00 44 1016.2
20260509175646 64 245 1.7 3.5 0.00 0.00 0.00 42 1016.2
20260509174145 64 16 3.5 5.2 0.00 0.00 0.00 46 1016.2
20260509172645 66 303 1.7 9.6 0.00 0.00 0.00 44 1016.0
20260509171145 66 259 1.7 5.2 0.00 0.00 0.00 40 1016.1
20260509165645 66 24 1.7 5.2 0.00 0.00 0.00 40 1016.1
20260509164144 66 29 1.7 3.5 0.00 0.00 0.00 42 1016.1
20260509162644 66 295 1.7 5.2 0.00 0.00 0.00 42 1016.1
20260509161143 66 342 1.7 5.2 0.00 0.00 0.00 43 1016.3
20260509155643 66 24 1.7 9.6 0.00 0.00 0.00 43 1016.4
20260509154143 64 344 3.5 7.0 0.00 0.00 0.00 43 1016.6
20260509152643 64 280 3.5 7.0 0.00 0.00 0.00 42 1016.8
20260509151142 66 255 3.5 9.6 0.00 0.00 0.00 44 1016.8
20260509145642 66 273 5.2 9.6 0.00 0.00 0.00 42 1016.8
20260509144141 64 215 3.5 7.0 0.00 0.00 0.00 39 1017.1
20260509142641 64 285 1.7 3.5 0.00 0.00 0.00 43 1017.1
20260509141140 64 273 1.7 7.0 0.00 0.00 0.00 45 1017.3
20260509135640 64 289 1.7 5.2 0.00 0.00 0.00 47 1017.4
20260509134140 62 180 3.5 7.0 0.00 0.00 0.00 48 1017.7
20260509132640 62 175 3.5 7.0 0.00 0.00 0.00 45 1017.8
20260509131139 62 299 1.7 3.5 0.00 0.00 0.00 50 1018.0
20260509125639 62 68 1.7 7.0 0.00 0.00 0.00 52 1018.2
20260509124138 60 129 3.5 7.0 0.00 0.00 0.00 51 1018.3
20260509122638 60 77 3.5 7.0 0.00 0.00 0.00 52 1018.4
20260509121137 62 71 0.0 5.2 0.00 0.00 0.00 51 1018.5
20260509115638 62 183 1.7 9.6 0.00 0.00 0.00 51 1018.6
20260509114136 60 81 1.7 5.2 0.00 0.00 0.00 53 1018.8
20260509112637 60 192 3.5 7.0 0.00 0.00 0.00 54 1019.0
20260509111136 59 127 3.5 7.0 0.00 0.00 0.00 54 1019.1
20260509105636 59 142 3.5 7.0 0.00 0.00 0.00 56 1019.3
20260509104136 59 109 1.7 9.6 0.00 0.00 0.00 63 1019.3
20260509102635 60 128 3.5 9.6 0.00 0.00 0.00 60 1019.3
20260509101135 60 83 1.7 7.0 0.00 0.00 0.00 63 1019.4
20260509095635 59 166 0.0 7.0 0.00 0.00 0.00 66 1019.4
20260509094134 55 83 3.5 7.0 0.00 0.00 0.00 69 1019.5
20260509092634 55 36 3.5 7.0 0.00 0.00 0.00 72 1019.5
20260509091134 55 39 3.5 7.0 0.00 0.00 0.00 73 1019.5
20260509085633 53 46 3.5 7.0 0.00 0.00 0.00 77 1019.6
20260509084133 53 28 5.2 7.0 0.00 0.00 0.00 77 1019.7
20260509082633 53 55 3.5 7.0 0.00 0.00 0.00 78 1019.7
20260509081132 53 37 3.5 7.0 0.00 0.00 0.00 78 1019.8
20260509075633 53 35 3.5 5.2 0.00 0.00 0.00 79 1019.8
20260509074132 51 71 1.7 5.2 0.00 0.00 0.00 79 1019.8
20260509072632 51 94 1.7 5.2 0.00 0.00 0.00 79 1019.9
20260509071131 51 66 1.7 5.2 0.00 0.00 0.00 81 1020.0
20260509065631 50 68 1.7 5.2 0.00 0.00 0.00 80 1020.0
20260509064131 50 66 3.5 7.0 0.00 0.00 0.00 84 1019.8
20260509062630 48 65 3.5 7.0 0.00 0.00 0.00 87 1019.8
20260509061129 48 58 5.2 7.0 0.00 0.00 0.00 89 1019.7
20260509055630 46 61 3.5 7.0 0.00 0.00 0.00 92 1019.6
20260509054129 46 54 3.5 5.2 0.00 0.00 0.00 96 1019.5
20260509052629 42 55 1.7 5.2 0.00 0.00 0.00 99 1019.5
20260509051128 41 57 3.5 5.2 0.00 0.00 0.00 99 1019.5
20260509045628 41 62 3.5 3.5 0.00 0.00 0.00 99 1019.4
20260509044127 39 53 1.7 3.5 0.00 0.00 0.00 99 1019.5
20260509042628 41 54 1.7 3.5 0.00 0.00 0.00 99 1019.5
20260509041127 39 51 3.5 3.5 0.00 0.00 0.00 99 1019.5
20260509035627 39 51 3.5 3.5 0.00 0.00 0.00 99 1019.6
20260509034127 35 40 1.7 3.5 0.00 0.00 0.00 98 1019.6
20260509032627 37 53 1.7 3.5 0.00 0.00 0.00 99 1019.8
20260509031127 37 43 3.5 3.5 0.00 0.00 0.00 99 1019.9
20260509025626 37 22 1.7 1.7 0.00 0.00 0.00 99 1019.9
20260509024125 37 22 1.7 3.5 0.00 0.00 0.00 99 1019.8
20260509022626 37 23 1.7 1.7 0.00 0.00 0.00 99 1019.7
20260509021125 37 26 1.7 3.5 0.00 0.00 0.00 98 1019.8
20260509015625 39 18 1.7 1.7 0.00 0.00 0.00 99 1020.0
20260509014125 39 49 0.0 1.7 0.00 0.00 0.00 99 1020.0
20260509012625 39 49 0.0 0.0 0.00 0.00 0.00 98 1020.0
20260509011125 39 49 0.0 0.0 0.00 0.00 0.00 96 1020.0
20260509005625 42 88 1.7 5.2 0.00 0.00 0.00 90 1020.0
20260509004124 44 83 1.7 5.2 0.00 0.00 0.00 89 1019.9
20260509002624 46 88 3.5 5.2 0.00 0.00 0.00 87 1019.8
20260509001123 46 84 3.5 7.0 0.00 0.00 0.00 87 1019.8
20260508235623 46 104 3.5 7.0 0.00 0.00 0.00 86 1019.8
20260508234123 46 104 3.5 5.2 0.00 0.00 0.00 86 1019.9